Satellite: IO-26
Catalog number: 22826
Epoch time:      09056.84550312
Element set:    0906
Inclination:      098.4152 deg
RA of node:       014.6494 deg
Eccentricity:    0.0008158
Arg of perigee:   225.9663 deg
Mean anomaly:     134.0847 deg
Mean motion:   14.29510346 rev/day
Decay rate:        8.0e-08 rev/day^2
Epoch rev:           80410
Checksum:              298

Satellite: GO-32
Catalog number: 25397
Epoch time:      09056.84780380
Element set:     830
Inclination:      098.3367 deg
RA of node:       085.0975 deg
Eccentricity:    0.0000812
Arg of perigee:   169.3910 deg
Mean anomaly:     190.7269 deg
Mean motion:   14.23154937 rev/day
Decay rate:      -1.09e-06 rev/day^2
Epoch rev:           55229
Checksum:              327

Satellite: NO-44
Catalog number: 26931
Epoch time:      09056.83374293
Element set:     107
Inclination:      067.0544 deg
RA of node:       351.2181 deg
Eccentricity:    0.0005391
Arg of perigee:   262.7269 deg
Mean anomaly:     097.3234 deg
Mean motion:   14.29547427 rev/day
Decay rate:       -9.1e-07 rev/day^2
Epoch rev:           38666
Checksum:              319

Satellite: SO-50
Catalog number: 27607
Epoch time:      09056.31795374
Element set:    0824
Inclination:      064.5592 deg
RA of node:       004.8523 deg
Eccentricity:    0.0078165
Arg of perigee:   229.7387 deg
Mean anomaly:     129.6863 deg
Mean motion:   14.71416093 rev/day
Decay rate:       -5.9e-07 rev/day^2
Epoch rev:           33221
Checksum:              326

Satellite: CO-55
Catalog number: 27844
Epoch time:      09057.62704266
Element set:     520
Inclination:      098.7153 deg
RA of node:       068.3429 deg
Eccentricity:    0.0010579
Arg of perigee:   100.4288 deg
Mean anomaly:     259.8086 deg
Mean motion:   14.20624404 rev/day
Decay rate:        6.2e-07 rev/day^2
Epoch rev:           29356
Checksum:              315

Satellite: CO-57
Catalog number: 27848
Epoch time:      09057.58923671
Element set:     467
Inclination:      098.7173 deg
RA of node:       067.3697 deg
Eccentricity:    0.0010547
Arg of perigee:   105.2570 deg
Mean anomaly:     254.9758 deg
Mean motion:   14.20428101 rev/day
Decay rate:        2.1e-07 rev/day^2
Epoch rev:           29352
Checksum:              328

Satellite: AO-51
Catalog number: 28375
Epoch time:      09056.55996147
Element set:    0327
Inclination:      098.0564 deg
RA of node:       072.6511 deg
Eccentricity:    0.0084710
Arg of perigee:   103.4566 deg
Mean anomaly:     257.6086 deg
Mean motion:   14.40633953 rev/day
Decay rate:        4.0e-08 rev/day^2
Epoch rev:           24488
Checksum:              322

Satellite: CO-56
Catalog number: 28941
Epoch time:      09057.54442526
Element set:     853
Inclination:      098.1262 deg
RA of node:       212.3538 deg
Eccentricity:    0.0116630
Arg of perigee:   187.5001 deg
Mean anomaly:     172.4437 deg
Mean motion:   15.72565119 rev/day
Decay rate:     5.9419e-04 rev/day^2
Epoch rev:           16979
Checksum:              333

Satellite: CP3
Catalog number: 31128
Epoch time:      09057.68892488
Element set:     566
Inclination:      098.0022 deg
RA of node:       115.8973 deg
Eccentricity:    0.0101867
Arg of perigee:   267.5100 deg
Mean anomaly:     091.4435 deg
Mean motion:   14.52020759 rev/day
Decay rate:       -4.8e-07 rev/day^2
Epoch rev:            9886
Checksum:              323

Satellite: CP4
Catalog number: 31132
Epoch time:      09057.64884494
Element set:     544
Inclination:      098.0084 deg
RA of node:       119.3027 deg
Eccentricity:    0.0084642
Arg of perigee:   257.6589 deg
Mean anomaly:     101.5114 deg
Mean motion:   14.55186028 rev/day
Decay rate:        9.7e-07 rev/day^2
Epoch rev:            9895
Checksum:              323

Satellite: CO-65
Catalog number: 32785
Epoch time:      09057.22175294
Element set:     300
Inclination:      097.9609 deg
RA of node:       122.0406 deg
Eccentricity:    0.0015751
Arg of perigee:   035.4392 deg
Mean anomaly:     324.7841 deg
Mean motion:   14.81452238 rev/day
Decay rate:       1.70e-06 rev/day^2
Epoch rev:            4501
Checksum:              287

/EX
SB KEPS @ AMSAT  $ORB09057.W
Orbital Elements  09057.WEATHER

HR AMSAT ORBITAL ELEMENTS FOR WEATHER SATELLITES
FROM WA5QGD FORT WORTH,TX February 26, 2009
Send Subscribe/unsubscribe to KEPS at 
http://www.amsat.org/mailman/listinfo/keps
BID: ORB09057.W
TO ALL RADIO AMATEURS BT

Satellite: NOAA-10
Catalog number: 16969
Epoch time:      09056.63126659
Element set:    0516
Inclination:      098.7033 deg
RA of node:       083.8285 deg
Eccentricity:    0.0012564
Arg of perigee:   158.9965 deg
Mean anomaly:     201.1730 deg
Mean motion:   14.27380423 rev/day
Decay rate:       -4.3e-07 rev/day^2
Epoch rev:           16759
Checksum:              322

Satellite: NOAA-11
Catalog number: 19531
Epoch time:      09056.82925301
Element set:    0526
Inclination:      098.7854 deg
RA of node:       148.5063 deg
Eccentricity:    0.0012338
Arg of perigee:   067.2653 deg
Mean anomaly:     292.9823 deg
Mean motion:   14.14888388 rev/day
Decay rate:      -2.36e-06 rev/day^2
Epoch rev:           05377
Checksum:              330

